Bloomington, IN

12:26 AM EDT on May 24, 2017 (GMT -0400)
Monroe County

Weather History for KBMG - May, 2012

Change the Weather History Date:

Monday, May 21, 2012

  Actual Average Record
Temperature  
Mean Temperature 67 °F 64 °F  
Max Temperature 78 °F 75 °F 87 °F (2014)
Min Temperature 55 °F 53 °F 35 °F (2002)
Degree Days  
Heating Degree Days 0 4  
Month to date heating degree days 30 112  
Since 1 July heating degree days 4132 5226  
Cooling Degree Days 2 3  
Month to date cooling degree days 84 32  
Year to date cooling degree days 132 51  
Growing Degree Days 17 (Base 50)    
Moisture  
Dew Point 59 °F    
Average Humidity 77    
Maximum Humidity 93    
Minimum Humidity 60    
Precipitation  
Precipitation 0.03 in 0.15 in 1.21 in (2014)
Month to date precipitation 1.97 3.62  
Year to date precipitation 11.42 18.27  
Sea Level Pressure  
Sea Level Pressure 30.03 in    
Wind  
Wind Speed 5 mph (NW)    
Max Wind Speed 16 mph    
Max Gust Speed 23 mph    
Visibility 9 miles    
Events Rain , Thunderstorm    
T = Trace of Precipitation, MM = Missing Value Source: NWS Daily Summary

Daily Weather History Graph

Daily Weather History Graph

Search for Another Location

Airport or City:

Trip Planner

Search our weather history database for the weather conditions in past years. The results will help you decide how hot, cold, wet, or windy it might be!

Date:

Astronomy

May. 21, 2012 Rise Set
Actual Time 6:28 AM EDT 8:58 PM EDT
Civil Twilight 5:57 AM EDT 9:29 PM EDT
Nautical Twilight 5:19 AM EDT 10:07 PM EDT
Astronomical Twilight 4:36 AM EDT 10:50 PM EDT
Moon 6:50 AM EDT (5/21) 9:48 PM EDT (5/21)
Length of Visible Light 15h 31m
Length of Day
14h 30m
New Moon, 0% of the Moon is Illuminated
May 21
New Moon
May 28
First Quarter
Jun 4
Full
Jun 11
Last Quarter
Jun 19
New

Hourly Weather History & Observations

Time (EDT) Temp. Dew Point Humidity Pressure Visibility Wind Dir Wind Speed Gust Speed Precip Events Conditions
12:53 AM 64.9 °F 62.1 °F 90% 30.07 in 4.0 mi NNW 8.1 mph - 0.05 in Rain , Thunderstorm Heavy Thunderstorms and Rain
1:11 AM 64.4 °F 62.6 °F 94% 30.08 in 10.0 mi WNW 8.1 mph - 0.02 in Rain Light Rain
1:53 AM 64.9 °F 62.1 °F 90% 30.05 in 9.0 mi Calm Calm - 0.04 in Rain Light Rain
2:53 AM 64.0 °F 61.0 °F 90% 30.02 in 10.0 mi Calm Calm - 0.01 in   Partly Cloudy
3:53 AM 64.0 °F 62.1 °F 93% 30.01 in 10.0 mi Calm Calm - 0.00 in   Mostly Cloudy
4:53 AM 63.0 °F 61.0 °F 93% 30.02 in 8.0 mi West 3.5 mph - N/A   Clear
5:21 AM 62.6 °F 60.8 °F 94% 30.04 in 7.0 mi Calm Calm - N/A   Scattered Clouds
5:53 AM 62.1 °F 60.1 °F 93% 30.01 in 6.0 mi NW 3.5 mph - N/A   Partly Cloudy
6:53 AM 62.1 °F 61.0 °F 96% 30.02 in 5.0 mi Calm Calm - N/A   Partly Cloudy
7:53 AM 64.0 °F 61.0 °F 90% 30.03 in 9.0 mi West 4.6 mph - N/A   Clear
8:53 AM 64.9 °F 62.1 °F 90% 30.04 in 10.0 mi West 4.6 mph - N/A   Clear
9:50 AM 66.2 °F 62.6 °F 88% 30.06 in 10.0 mi West 4.6 mph - N/A   Scattered Clouds
9:53 AM 66.0 °F 63.0 °F 90% 30.05 in 10.0 mi West 5.8 mph - N/A   Mostly Cloudy
10:53 AM 68.0 °F 61.0 °F 78% 30.04 in 10.0 mi NNW 3.5 mph - N/A   Scattered Clouds
11:32 AM 69.8 °F 62.6 °F 78% 30.06 in 10.0 mi Variable 3.5 mph - N/A   Mostly Cloudy
11:53 AM 71.1 °F 62.1 °F 73% 30.04 in 10.0 mi WNW 5.8 mph - N/A   Mostly Cloudy
12:25 PM 73.4 °F 62.6 °F 69% 30.06 in 10.0 mi Variable 3.5 mph - N/A   Mostly Cloudy
12:53 PM 73.9 °F 61.0 °F 64% 30.04 in 10.0 mi NW 4.6 mph - N/A   Mostly Cloudy
1:11 PM 73.4 °F 60.8 °F 65% 30.05 in 10.0 mi WNW 5.8 mph - N/A   Overcast
1:39 PM 73.4 °F 60.8 °F 65% 30.04 in 10.0 mi WNW 8.1 mph - N/A   Overcast
1:53 PM 75.0 °F 61.0 °F 62% 30.02 in 10.0 mi Variable 4.6 mph - N/A   Mostly Cloudy
2:53 PM 75.9 °F 60.1 °F 58% 30.00 in 10.0 mi Variable 6.9 mph - N/A   Scattered Clouds
3:53 PM 75.9 °F 61.0 °F 60% 29.99 in 10.0 mi North 9.2 mph - N/A   Mostly Cloudy
4:53 PM 73.0 °F 59.0 °F 61% 29.99 in 10.0 mi North 8.1 mph 20.7 mph N/A   Mostly Cloudy
5:53 PM 69.1 °F 57.0 °F 65% 30.00 in 10.0 mi North 9.2 mph 20.7 mph N/A   Overcast
6:08 PM 69.8 °F 55.4 °F 60% 30.01 in 10.0 mi North 9.2 mph 18.4 mph N/A   Mostly Cloudy
6:53 PM 68.0 °F 55.9 °F 65% 30.00 in 10.0 mi North 11.5 mph 19.6 mph N/A   Overcast
7:22 PM 66.2 °F 55.4 °F 68% 30.01 in 10.0 mi North 12.7 mph 18.4 mph N/A   Scattered Clouds
7:53 PM 64.9 °F 52.0 °F 63% 30.01 in 10.0 mi North 10.4 mph 18.4 mph N/A   Partly Cloudy
8:53 PM 62.1 °F 50.0 °F 65% 30.02 in 10.0 mi North 8.1 mph - N/A   Clear
9:53 PM 61.0 °F 48.9 °F 64% 30.03 in 10.0 mi Variable 5.8 mph - N/A   Clear
10:53 PM 59.0 °F 48.0 °F 67% 30.03 in 10.0 mi North 6.9 mph - N/A   Clear
11:53 PM 57.0 °F 46.9 °F 69% 30.03 in 10.0 mi NNW 4.6 mph - N/A   Clear